Location: Utrecht
(52.0907°N, 5.1214°E)
Time: 11:25:39
(UTC+02:00)

NANOSAT C BR1 - Pass Details

Date: 03 July 2022
Orbit: 584 x 599 km, 98.0° (Epoch: 13 August)

Event Time Altitude Azimuth Distance (km) Brightness Sun altitude
Rises 03:27:48 0° 19° (NNE) 2,852 ? -11.6°
Reaches altitude 10° 03:30:04 10° 26° (NNE) 1,947 ? -11.4°
Maximum altitude 03:34:06 43° 98° (E) 851 ? -11.2°
Drops below altitude 10° 03:38:08 10° 171° (S) 1,938 ? -10.9°
Enters shadow 03:38:10 10° 171° (S) 1,954 ? -10.9°
